Location: Newark
(27.9675°N, 86.8869°E)
Time: 14:16:21
(UTC+00:00)

ISS - Pass Details

Date: 17 September 2019
Orbit: 411 x 421 km, 51.6° (Epoch: 15 October)

Event Time Altitude Azimuth Distance (km) Brightness Sun altitude
Exits shadow 22:12:46 22° 135° (SE) 964 -1.7 -23.9°
Drops below altitude 10° 22:14:04 10° 136° (SE) 1,483 -0.7 -23.6°
Sets 22:16:09 0° 137° (SE) 2,344 0.4 -23.1°
